CW6641 Weather Reports


Display with metric or nautical units.
time (UTC)temp
F
wind
direction
speed
MPH
gust
MPH
rain 1hr
in
rain 24hr
in
rain mn
in
humidity
%
barometer
mb
20260508220050 72 0.0 0.0 0.00 0.00 0.00 40 1009.8
20260508215547 72 0.0 0.0 0.00 0.00 0.00 41 1009.9
20260508215044 72 0.0 0.0 0.00 0.00 0.00 41 1009.9
20260508214541 72 0.0 0.0 0.00 0.00 0.00 40 1010.1
20260508214037 72 0.0 0.0 0.00 0.00 0.00 40 1010.1
20260508213535 72 0.0 0.0 0.00 0.00 0.00 40 1010.1
20260508213030 72 0.0 0.0 0.00 0.00 0.00 40 1010.2
20260508212528 73 0.0 0.0 0.00 0.00 0.00 40 1010.0
20260508212024 73 0.0 0.0 0.00 0.00 0.00 41 1010.1
20260508211519 73 0.0 0.0 0.00 0.00 0.00 40 1010.3
20260508211016 73 0.0 0.0 0.00 0.00 0.00 40 1010.1
20260508210512 73 0.0 0.0 0.00 0.00 0.00 40 1010.2
20260508210010 73 0.0 0.0 0.00 0.00 0.00 41 1010.3
20260508205507 73 0.0 0.0 0.00 0.00 0.00 40 1010.4
20260508205003 73 0.0 0.0 0.00 0.00 0.00 40 1010.5
20260508204500 73 0.0 0.0 0.00 0.00 0.00 40 1010.6
20260508203955 72 0.0 0.0 0.00 0.00 0.00 40 1010.5
20260508203452 72 0.0 0.0 0.00 0.00 0.00 39 1010.7
20260508202947 72 0.0 0.0 0.00 0.00 0.00 41 1010.7
20260508202445 72 0.0 0.0 0.00 0.00 0.00 40 1010.7
20260508201942 73 0.0 0.0 0.00 0.00 0.00 40 1011.0
20260508201438 73 0.0 0.0 0.00 0.00 0.00 40 1010.9
20260508200935 73 0.0 0.0 0.00 0.00 0.00 40 1010.9
20260508200433 73 0.0 0.0 0.00 0.00 0.00 41 1011.1
20260508195927 73 0.0 0.0 0.00 0.00 0.00 41 1011.1
20260508195425 73 0.0 0.0 0.00 0.00 0.00 41 1011.3
20260508194920 72 0.0 0.0 0.00 0.00 0.00 41 1011.2
20260508194418 72 0.0 0.0 0.00 0.00 0.00 41 1011.2
20260508193915 72 0.0 0.0 0.00 0.00 0.00 39 1011.4
20260508193412 72 0.0 0.0 0.00 0.00 0.00 40 1011.6
20260508192908 72 0.0 0.0 0.00 0.00 0.00 42 1011.7
20260508192405 72 0.0 0.0 0.00 0.00 0.00 41 1012.0
20260508191902 72 0.0 0.0 0.00 0.00 0.00 42 1012.2
20260508191400 72 0.0 0.0 0.00 0.00 0.00 41 1012.2
20260508190856 72 0.0 0.0 0.00 0.00 0.00 41 1012.3
20260508190353 72 0.0 0.0 0.00 0.00 0.00 40 1012.3
20260508185849 72 0.0 0.0 0.00 0.00 0.00 41 1012.4
20260508185347 71 0.0 0.0 0.00 0.00 0.00 43 1012.1
20260508184844 71 0.0 0.0 0.00 0.00 0.00 42 1012.4
20260508184341 71 0.0 0.0 0.00 0.00 0.00 41 1012.6
20260508183838 71 0.0 0.0 0.00 0.00 0.00 41 1012.5
20260508183334 71 0.0 0.0 0.00 0.00 0.00 44 1012.5
20260508182830 71 0.0 0.0 0.00 0.00 0.00 42 1012.7
20260508182327 71 0.0 0.0 0.00 0.00 0.00 42 1012.8
20260508181823 71 0.0 0.0 0.00 0.00 0.00 42 1012.8
20260508181320 70 0.0 0.0 0.00 0.00 0.00 42 1012.8
20260508180817 70 0.0 0.0 0.00 0.00 0.00 42 1013.0
20260508180314 70 0.0 0.0 0.00 0.00 0.00 42 1012.7
20260508175810 70 0.0 0.0 0.00 0.00 0.00 42 1012.8
20260508175307 70 0.0 0.0 0.00 0.00 0.00 42 1013.0
20260508174805 69 0.0 0.0 0.00 0.00 0.00 42 1013.1
20260508174302 70 0.0 0.0 0.00 0.00 0.00 42 1013.5
20260508173758 70 0.0 0.0 0.00 0.00 0.00 43 1013.4
20260508173254 70 0.0 0.0 0.00 0.00 0.00 43 1013.4
20260508172745 69 0.0 0.0 0.00 0.00 0.00 47 1013.5
20260508172242 69 0.0 0.0 0.00 0.00 0.00 44 1013.5
20260508171739 69 0.0 0.0 0.00 0.00 0.00 47 1013.7
20260508171235 69 0.0 0.0 0.00 0.00 0.00 46 1013.5
20260508170732 69 0.0 0.0 0.00 0.00 0.00 46 1013.5
20260508170230 68 0.0 0.0 0.00 0.00 0.00 49 1013.7
20260508165727 68 0.0 0.0 0.00 0.00 0.00 45 1013.7
20260508165224 68 0.0 0.0 0.00 0.00 0.00 47 1013.6
20260508164720 68 0.0 0.0 0.00 0.00 0.00 47 1013.5
20260508164216 68 0.0 0.0 0.00 0.00 0.00 49 1013.7
20260508163715 68 0.0 0.0 0.00 0.00 0.00 49 1013.9
20260508163212 67 0.0 0.0 0.00 0.00 0.00 49 1014.1
20260508162707 67 0.0 0.0 0.00 0.00 0.00 48 1014.0
20260508162205 67 0.0 0.0 0.00 0.00 0.00 48 1014.2
20260508161702 67 0.0 0.0 0.00 0.00 0.00 50 1014.5
20260508161159 67 0.0 0.0 0.00 0.00 0.00 49 1014.6
20260508160657 67 0.0 0.0 0.00 0.00 0.00 49 1014.5
20260508160155 67 0.0 0.0 0.00 0.00 0.00 52 1014.7
20260508155651 66 0.0 0.0 0.00 0.00 0.00 50 1014.7
20260508155148 66 0.0 0.0 0.00 0.00 0.00 51 1015.0
20260508154645 66 0.0 0.0 0.00 0.00 0.00 50 1014.9
20260508154142 66 0.0 0.0 0.00 0.00 0.00 51 1014.8
20260508153639 66 0.0 0.0 0.00 0.00 0.00 50 1015.4
20260508153136 65 0.0 0.0 0.00 0.00 0.00 52 1015.2
20260508152632 65 0.0 0.0 0.00 0.00 0.00 52 1015.2
20260508152127 65 0.0 0.0 0.00 0.00 0.00 53 1015.2
20260508151625 64 0.0 0.0 0.00 0.00 0.00 53 1015.2
20260508151121 64 0.0 0.0 0.00 0.00 0.00 53 1015.4
20260508150618 64 0.0 0.0 0.00 0.00 0.00 55 1015.4
20260508150115 63 0.0 0.0 0.00 0.00 0.00 54 1015.4
20260508145611 63 0.0 0.0 0.00 0.00 0.00 55 1015.4
20260508145108 62 0.0 0.0 0.00 0.00 0.00 54 1015.5
20260508144606 62 0.0 0.0 0.00 0.00 0.00 56 1015.9
20260508144103 61 0.0 0.0 0.00 0.00 0.00 55 1015.7
20260508143600 61 0.0 0.0 0.00 0.00 0.00 55 1015.7
20260508143057 61 0.0 0.0 0.00 0.00 0.00 56 1015.7
20260508142553 61 0.0 0.0 0.00 0.00 0.00 56 1016.1
20260508142050 61 0.0 0.0 0.00 0.00 0.00 57 1016.0
20260508141547 60 0.0 0.0 0.00 0.00 0.00 58 1015.8
20260508141044 60 0.0 0.0 0.00 0.00 0.00 57 1016.0
20260508140541 59 0.0 0.0 0.00 0.00 0.00 58 1015.6
20260508140038 59 0.0 0.0 0.00 0.00 0.00 57 1016.0
20260508135533 59 0.0 0.0 0.00 0.00 0.00 57 1015.9
20260508135030 58 0.0 0.0 0.00 0.00 0.00 59 1015.8
20260508134527 57 0.0 0.0 0.00 0.00 0.00 59 1015.8
20260508134024 57 0.0 0.0 0.00 0.00 0.00 60 1015.9
20260508133520 57 0.0 0.0 0.00 0.00 0.00 61 1015.9
20260508133018 56 0.0 0.0 0.00 0.00 0.00 62 1016.0
20260508132516 55 0.0 0.0 0.00 0.00 0.00 62 1015.9
20260508132012 55 0.0 0.0 0.00 0.00 0.00 63 1016.0
20260508131507 54 0.0 0.0 0.00 0.00 0.00 64 1016.0
20260508131004 54 0.0 0.0 0.00 0.00 0.00 64 1015.8
20260508130502 54 0.0 0.0 0.00 0.00 0.00 64 1015.9
20260508125957 53 0.0 0.0 0.00 0.00 0.00 66 1016.1
20260508125453 53 0.0 0.0 0.00 0.00 0.00 67 1016.0
20260508124951 52 0.0 0.0 0.00 0.00 0.00 67 1015.8
20260508124449 52 0.0 0.0 0.00 0.00 0.00 66 1015.7
20260508123946 52 0.0 0.0 0.00 0.00 0.00 66 1015.7
20260508123445 51 0.0 0.0 0.00 0.00 0.00 66 1015.8
20260508122940 51 0.0 0.0 0.00 0.00 0.00 66 1015.7
20260508122438 51 0.0 0.0 0.00 0.00 0.00 66 1015.7
20260508121934 50 0.0 0.0 0.00 0.00 0.00 67 1015.7
20260508121433 50 0.0 0.0 0.00 0.00 0.00 67 1015.7
20260508120930 50 0.0 0.0 0.00 0.00 0.00 68 1015.7
20260508120428 50 0.0 0.0 0.00 0.00 0.00 67 1015.7
20260508115925 50 0.0 0.0 0.00 0.00 0.00 67 1015.5
20260508115423 49 0.0 0.0 0.00 0.00 0.00 67 1015.7
20260508114919 49 0.0 0.0 0.00 0.00 0.00 68 1015.4
20260508114416 49 0.0 0.0 0.00 0.00 0.00 68 1015.5
20260508113913 49 0.0 0.0 0.00 0.00 0.00 68 1015.6
20260508113411 49 0.0 0.0 0.00 0.00 0.00 68 1015.7
20260508112908 49 0.0 0.0 0.00 0.00 0.00 68 1015.4
20260508112405 48 0.0 0.0 0.00 0.00 0.00 69 1015.2
20260508111901 48 0.0 0.0 0.00 0.00 0.00 69 1015.2
20260508111358 48 0.0 0.0 0.00 0.00 0.00 69 1014.9
20260508110855 48 0.0 0.0 0.00 0.00 0.00 70 1015.0
20260508110353 48 0.0 0.0 0.00 0.00 0.00 70 1015.0
20260508105852 47 0.0 0.0 0.00 0.00 0.00 71 1014.8
20260508105349 47 0.0 0.0 0.00 0.00 0.00 71 1015.1
20260508104847 47 0.0 0.0 0.00 0.00 0.00 72 1015.4
20260508104343 47 0.0 0.0 0.00 0.00 0.00 72 1015.4
20260508103841 47 0.0 0.0 0.00 0.00 0.00 72 1015.5
20260508103337 47 0.0 0.0 0.00 0.00 0.00 71 1015.4
20260508102835 47 0.0 0.0 0.00 0.00 0.00 71 1015.2
20260508102333 47 0.0 0.0 0.00 0.00 0.00 71 1015.0
20260508101830 47 0.0 0.0 0.00 0.00 0.00 71 1015.4
20260508101327 47 0.0 0.0 0.00 0.00 0.00 71 1015.2
20260508100825 47 0.0 0.0 0.00 0.00 0.00 70 1015.1
20260508100324 48 0.0 0.0 0.00 0.00 0.00 69 1015.2
20260508095818 48 0.0 0.0 0.00 0.00 0.00 68 1014.9
20260508095316 48 0.0 0.0 0.00 0.00 0.00 68 1015.1
20260508094813 48 0.0 0.0 0.00 0.00 0.00 67 1015.4
20260508094310 48 0.0 0.0 0.00 0.00 0.00 67 1015.2
20260508093807 48 0.0 0.0 0.00 0.00 0.00 67 1015.4
20260508093305 48 0.0 0.0 0.00 0.00 0.00 68 1015.2
20260508092802 48 0.0 0.0 0.00 0.00 0.00 68 1015.1
20260508092300 48 0.0 0.0 0.00 0.00 0.00 68 1015.0
20260508091758 48 0.0 0.0 0.00 0.00 0.00 68 1015.1
20260508091254 48 0.0 0.0 0.00 0.00 0.00 68 1015.1
20260508090752 48 0.0 0.0 0.00 0.00 0.00 68 1015.5
20260508090250 48 0.0 0.0 0.00 0.00 0.00 68 1015.0
20260508085745 48 0.0 0.0 0.00 0.00 0.00 68 1015.2
20260508085242 49 0.0 0.0 0.00 0.00 0.00 67 1015.2
20260508084738 49 0.0 0.0 0.00 0.00 0.00 67 1015.4
20260508084236 49 0.0 0.0 0.00 0.00 0.00 68 1015.2
20260508083733 49 0.0 0.0 0.00 0.00 0.00 68 1015.4
20260508083230 49 0.0 0.0 0.00 0.00 0.00 67 1015.6
20260508082725 49 0.0 0.0 0.00 0.00 0.00 67 1015.6
20260508082224 49 0.0 0.0 0.00 0.00 0.00 66 1015.4
20260508081721 49 0.0 0.0 0.00 0.00 0.00 66 1015.6
20260508081217 49 0.0 0.0 0.00 0.00 0.00 67 1015.4
20260508080714 49 0.0 0.0 0.00 0.00 0.00 68 1015.4
20260508080212 49 0.0 0.0 0.00 0.00 0.00 68 1015.6
20260508075708 49 0.0 0.0 0.00 0.00 0.00 68 1015.6
20260508075206 49 0.0 0.0 0.00 0.00 0.00 69 1015.6
20260508074703 49 0.0 0.0 0.00 0.00 0.00 70 1015.7
20260508074200 49 0.0 0.0 0.00 0.00 0.00 68 1015.4
20260508073657 50 0.0 0.0 0.00 0.00 0.00 67 1015.6
20260508073155 50 0.0 0.0 0.00 0.00 0.00 66 1015.5
20260508072650 50 0.0 0.0 0.00 0.00 0.00 66 1015.4
20260508072148 50 0.0 0.0 0.00 0.00 0.00 66 1015.7
20260508071645 50 0.0 0.0 0.00 0.00 0.00 67 1015.7
20260508071144 49 0.0 0.0 0.00 0.00 0.00 66 1015.6
20260508070641 49 0.0 0.0 0.00 0.00 0.00 68 1015.5
20260508070139 48 0.0 0.0 0.00 0.00 0.00 70 1015.6
20260508065636 48 0.0 0.0 0.00 0.00 0.00 70 1015.9
20260508065134 48 0.0 0.0 0.00 0.00 0.00 70 1015.8
20260508064631 48 0.0 0.0 0.00 0.00 0.00 71 1015.8
20260508064129 48 0.0 0.0 0.00 0.00 0.00 70 1015.8
20260508063626 49 0.0 0.0 0.00 0.00 0.00 68 1015.9
20260508063125 49 0.0 0.0 0.00 0.00 0.00 68 1015.9
20260508062622 49 0.0 0.0 0.00 0.00 0.00 68 1015.8
20260508062118 49 0.0 0.0 0.00 0.00 0.00 69 1016.0
20260508061615 49 0.0 0.0 0.00 0.00 0.00 68 1016.0
20260508061113 48 0.0 0.0 0.00 0.00 0.00 68 1016.1
20260508060609 49 0.0 0.0 0.00 0.00 0.00 69 1016.0
20260508060107 49 0.0 0.0 0.00 0.00 0.00 67 1016.1
20260508055602 49 0.0 0.0 0.00 0.00 0.00 68 1016.1
20260508055059 49 0.0 0.0 0.00 0.00 0.00 68 1016.0
20260508054556 49 0.0 0.0 0.00 0.00 0.00 65 1016.0
20260508054053 50 0.0 0.0 0.00 0.00 0.00 65 1016.3
20260508053549 50 0.0 0.0 0.00 0.00 0.00 64 1016.1
20260508053048 50 0.0 0.0 0.00 0.00 0.00 64 1016.2
20260508052545 51 0.0 0.0 0.00 0.00 0.00 63 1016.1
20260508052042 51 0.0 0.0 0.00 0.00 0.00 62 1016.1
20260508051538 51 0.0 0.0 0.00 0.00 0.00 62 1016.2
20260508051033 51 0.0 0.0 0.00 0.00 0.00 62 1016.0
20260508050530 51 0.0 0.0 0.00 0.00 0.00 62 1016.3
20260508050027 52 0.0 0.0 0.00 0.00 0.00 60 1016.1
20260508045523 52 0.0 0.0 0.00 0.00 0.00 60 1016.2
20260508045021 52 0.0 0.0 0.00 0.00 0.00 60 1016.3
20260508044518 52 0.0 0.0 0.00 0.00 0.00 59 1016.5
20260508044014 53 0.0 0.0 0.00 0.00 0.00 59 1016.3
20260508043511 53 0.0 0.0 0.00 0.00 0.00 59 1016.4
20260508043008 53 0.0 0.0 0.00 0.00 0.00 59 1016.4
20260508042505 53 0.0 0.0 0.00 0.00 0.00 60 1016.3
20260508042002 53 0.0 0.0 0.00 0.00 0.00 59 1016.3
20260508041458 53 0.0 0.0 0.00 0.00 0.00 59 1016.3
20260508040955 53 0.0 0.0 0.00 0.00 0.00 59 1016.3
20260508040452 53 0.0 0.0 0.00 0.00 0.00 60 1016.2
20260508035950 52 0.0 0.0 0.00 0.00 0.00 60 1016.2
20260508035446 52 0.0 0.0 0.00 0.00 0.00 60 1016.1
20260508034943 52 0.0 0.0 0.00 0.00 0.00 61 1016.1
20260508034441 51 0.0 0.0 0.00 0.00 0.00 63 1016.1
20260508033937 51 0.0 0.0 0.00 0.00 0.00 64 1016.0
20260508033436 51 0.0 0.0 0.00 0.00 0.00 64 1016.2
20260508032932 51 0.0 0.0 0.00 0.00 0.00 65 1016.2
20260508032430 51 0.0 0.0 0.00 0.00 0.00 63 1015.9
20260508031926 51 0.0 0.0 0.00 0.00 0.00 63 1016.1
20260508031424 51 0.0 0.0 0.00 0.00 0.00 64 1016.1
20260508030919 51 0.0 0.0 0.00 0.00 0.00 62 1016.2
20260508030417 51 0.0 0.0 0.00 0.00 0.00 62 1016.2
20260508025914 52 0.0 0.0 0.00 0.00 0.00 61 1016.0
20260508025410 52 0.0 0.0 0.00 0.00 0.00 61 1016.2
20260508024907 52 0.0 0.0 0.00 0.00 0.00 59 1016.0
20260508024404 52 0.0 0.0 0.00 0.00 0.00 59 1016.0
20260508023901 53 0.0 0.0 0.00 0.00 0.00 59 1016.1
20260508023358 53 0.0 0.0 0.00 0.00 0.00 58 1016.1
20260508022854 53 0.0 0.0 0.00 0.00 0.00 57 1016.2
20260508022350 53 0.0 0.0 0.00 0.00 0.00 57 1016.1
20260508021847 53 0.0 0.0 0.00 0.00 0.00 56 1016.1
20260508021343 54 0.0 0.0 0.00 0.00 0.00 55 1015.9
20260508020839 54 0.0 0.0 0.00 0.00 0.00 55 1016.0
20260508020337 55 0.0 0.0 0.00 0.00 0.00 54 1015.9
20260508015834 55 0.0 0.0 0.00 0.00 0.00 54 1015.6
20260508015332 55 0.0 0.0 0.00 0.00 0.00 53 1015.8
20260508014828 55 0.0 0.0 0.00 0.00 0.00 52 1015.7
20260508014325 56 0.0 0.0 0.00 0.00 0.00 51 1015.6
20260508013820 56 0.0 0.0 0.00 0.00 0.00 51 1015.4
20260508013317 56 0.0 0.0 0.00 0.00 0.00 50 1015.2
20260508012814 57 0.0 0.0 0.00 0.00 0.00 48 1015.2
20260508012311 57 0.0 0.0 0.00 0.00 0.00 48 1015.4
20260508011809 57 0.0 0.0 0.00 0.00 0.00 48 1015.2
20260508011307 58 0.0 0.0 0.00 0.00 0.00 46 1015.1
20260508010803 59 0.0 0.0 0.00 0.00 0.00 45 1015.0
20260508010302 59 0.0 0.0 0.00 0.00 0.00 44 1015.0
20260508005758 60 0.0 0.0 0.00 0.00 0.00 43 1015.0
20260508005255 60 0.0 0.0 0.00 0.00 0.00 42 1015.4
20260508004750 60 0.0 0.0 0.00 0.00 0.00 41 1015.1
20260508004247 60 0.0 0.0 0.00 0.00 0.00 40 1015.1
20260508003743 61 0.0 0.0 0.00 0.00 0.00 39 1015.2
20260508003241 61 0.0 0.0 0.00 0.00 0.00 39 1015.1
20260508002737 61 0.0 0.0 0.00 0.00 0.00 39 1015.0
20260508002235 61 0.0 0.0 0.00 0.00 0.00 39 1015.1
20260508001730 61 0.0 0.0 0.00 0.00 0.00 39 1015.0
20260508001226 61 0.0 0.0 0.00 0.00 0.00 39 1014.9
20260508000723 61 0.0 0.0 0.00 0.00 0.00 39 1015.0
20260508000220 61 0.0 0.0 0.00 0.00 0.00 38 1015.1
20260507235716 61 0.0 0.0 0.00 0.00 0.00 37 1014.8
20260507235214 62 0.0 0.0 0.00 0.00 0.00 37 1014.9
20260507234711 62 0.0 0.0 0.00 0.00 0.00 36 1014.9
20260507234207 62 0.0 0.0 0.00 0.00 0.00 36 1014.9
20260507233704 62 0.0 0.0 0.00 0.00 0.00 36 1015.2
20260507233202 62 0.0 0.0 0.00 0.00 0.00 35 1014.9
20260507232659 62 0.0 0.0 0.00 0.00 0.00 36 1014.8
20260507232156 62 0.0 0.0 0.00 0.00 0.00 34 1014.9
20260507231652 62 0.0 0.0 0.00 0.00 0.00 33 1015.0
20260507231149 62 0.0 0.0 0.00 0.00 0.00 33 1015.1
20260507230646 62 0.0 0.0 0.00 0.00 0.00 34 1015.0
20260507230143 62 0.0 0.0 0.00 0.00 0.00 36 1015.1
20260507225643 62 0.0 0.0 0.00 0.00 0.00 35 1014.9
20260507225140 62 0.0 0.0 0.00 0.00 0.00 34 1015.4
20260507224635 62 0.0 0.0 0.00 0.00 0.00 33 1015.4
20260507224132 62 0.0 0.0 0.00 0.00 0.00 33 1015.4
20260507223628 62 0.0 0.0 0.00 0.00 0.00 33 1015.5
20260507223125 62 0.0 0.0 0.00 0.00 0.00 35 1015.5
20260507222622 62 0.0 0.0 0.00 0.00 0.00 31 1015.4
20260507222119 62 0.0 0.0 0.00 0.00 0.00 34 1015.5
20260507221614 62 0.0 0.0 0.00 0.00 0.00 36 1015.2
20260507221111 62 0.0 0.0 0.00 0.00 0.00 35 1015.2
20260507220609 62 0.0 0.0 0.00 0.00 0.00 34 1015.5